DELTA 1 DEB

Satellite information

Favourite Embed

Satellite Type and Status

DEBRISIN ORBIT

Key statistics

Satellite DELTA 1 DEB at a glance.

Uptime

19281

Days in orbit

Revolutions

≈ 13.6

Per day

Orbit

SSO

Sun Synchronous Orbit

Inclination

99.0

Latest

Satellite identification and parameters

Extended collection of information and parameters for DELTA 1 DEB.

Object identification

Identified? True

Debris? True

Object name: DELTA 1 DEB

International designator: 1972-058CM

Object number (NORAD): 7957

Object ID (CCSDS): 7957

Country: UNITED STATES OF AMERICA (US)

Current information (Y/N): Y

RCS size: MEDIUM

Orbital parameters

Period: 105.55 minutes

Inclination: 98.9526 deg

SMA: 7398.289 km

Apoapsis: 1401.045 km

Periapsis: 639.262 km

RAAN: 3.7969 deg

Eccentricy: 0.0514837

Argument of periapsis: 176.7414 deg

Mean anomaly: 183.7306 deg

Mean motion: 13.64287361 rev/day

Mean motion (dot): 0.00000958 rev/day2

B* drag term: 0.00050415 1/REarth

Two-line elements (TLE)

Creation date: May 6, 2025, 3:54 a.m.

Reference frame: TEME

Reference center: EARTH

Epoch: May 5, 2025, 3:17 p.m. UTC

TLE line 0: 0 DELTA 1 DEB

TLE line 1: 1 07957U 72058CM 25125.63680999 .00000958 00000-0 50415-3 0 9995

TLE line 2: 2 07957 98.9526 3.7969 0514837 176.7414 183.7306 13.64287361753476

Live tracking on map

Real-time ground track for satellite DELTA 1 DEB.

In-orbit conjunctions

A list of the most updated potential collisions computed for object DELTA 1 DEB.

Target Orbit TCA Probability of collision Miss distance Type
CZ-6A DEB SSO 2024-09-23 19:13:11 0.0001658199 180.0 (m) DEBRIS

Associated space launch

Earth observation satellite

DELTA 1 DEB was lifted into orbit during the mission ‘Delta 0900 | Landsat 1’, on board a Delta 0900 space rocket.

The launch took place on July 23, 1972, 6:06 p.m. from Space Launch Complex 2W.

For more information about the launch, click the button.

Launch to space Delta 0900 | Landsat 1
Delta 0900 | Landsat 1

Agency: N/A

Status: Launch Successful

Launch date: July 23, 1972, 6:06 p.m. UTC

Rocket: Delta 0900

Launch pad: Space Launch Complex 2W

Location: Vandenberg SFB, CA, USA

...

Latest news about this satellite

There are no fresh news available about this satellite. Check back as we update our databases every day.


Newsletter sign-up

Weekly statistics, charts and insights to help you stay on top of the space industry.